DW9636 Weather Reports


time (UTC)temp
F
wind
direction
speed
knots
gust
knots
rain 1hr
in
rain 24hr
in
rain mn
in
humidity
%
barometer
mb
20260506113019 36 331 0.0 0.0 0.00 0.00 0.00 89 1013.9
20260506111517 36 331 0.0 0.0 0.00 0.00 0.00 89 1013.8
20260506110013 37 331 0.0 0.0 0.00 0.00 0.00 88 1013.7
20260506104517 38 331 0.0 0.0 0.00 0.00 0.00 88 1013.6
20260506103008 39 331 0.0 0.0 0.00 0.00 0.00 87 1013.6
20260506101505 39 331 0.0 0.0 0.00 0.00 0.00 88 1013.5
20260506100011 40 331 0.0 0.0 0.00 0.00 0.00 88 1013.5
20260506094502 40 331 0.0 0.0 0.00 0.00 0.00 87 1013.3
20260506093058 41 331 0.0 0.0 0.00 0.00 0.00 86 1013.3
20260506091557 41 331 0.0 0.0 0.00 0.00 0.00 86 1013.1
20260506090053 42 331 0.0 0.0 0.00 0.00 0.00 85 1013.2
20260506084553 43 331 0.0 0.0 0.00 0.00 0.00 85 1013.1
20260506083054 44 331 0.0 0.0 0.00 0.00 0.00 84 1013.1
20260506081600 45 331 0.0 0.0 0.00 0.00 0.00 83 1013.0
20260506073037 47 331 0.0 0.0 0.00 0.00 0.00 81 1012.6
20260506071534 47 331 0.0 0.0 0.00 0.00 0.00 81 1012.4
20260506061528 51 331 0.0 0.0 0.00 0.00 0.00 75 1012.0
20260506044524 59 331 0.0 0.0 0.00 0.00 0.00 61 1011.1
20260506043020 60 331 0.0 0.0 0.00 0.00 0.00 60 1011.1
20260506041520 61 331 0.0 0.0 0.00 0.00 0.00 57 1011.0
20260506040016 62 331 0.0 0.0 0.00 0.00 0.00 49 1010.9
20260506034515 63 331 0.0 0.0 0.00 0.00 0.00 42 1010.6
20260506033020 65 331 0.0 0.0 0.00 0.00 0.00 36 1010.4
20260506031523 66 331 0.0 0.0 0.00 0.00 0.00 33 1010.2
20260506030010 67 331 0.0 0.0 0.00 0.00 0.00 32 1010.1
20260506024510 68 333 0.0 0.0 0.00 0.00 0.00 34 1009.8
20260506023008 68 325 0.0 0.0 0.00 0.00 0.00 35 1009.6
20260506021508 68 355 0.0 0.0 0.00 0.00 0.00 36 1009.5
20260506020012 69 19 0.0 0.0 0.00 0.00 0.00 36 1009.5
20260506014506 69 331 0.0 0.0 0.00 0.00 0.00 36 1009.3
20260506013006 70 323 0.9 0.0 0.00 0.00 0.00 37 1009.2
20260506011511 71 335 0.0 0.0 0.00 0.00 0.00 37 1008.9
20260506010015 71 324 0.9 0.0 0.00 0.00 0.00 35 1008.7
20260506004506 72 308 0.0 0.0 0.00 0.00 0.00 35 1008.5
20260506003004 73 346 0.9 0.0 0.00 0.00 0.00 35 1008.3
20260506001504 73 345 0.0 0.0 0.00 0.00 0.00 35 1008.3
20260506000004 72 342 0.0 0.0 0.00 0.00 0.00 37 1008.2
20260505234503 72 31 0.0 0.0 0.00 0.00 0.00 36 1008.3
20260505233005 73 32 0.0 0.0 0.00 0.00 0.00 32 1008.3
20260505231503 73 360 0.0 0.0 0.00 0.00 0.00 35 1008.1
20260505230101 74 13 0.0 0.0 0.00 0.00 0.00 32 1008.1
20260505224559 76 290 0.0 0.0 0.00 0.00 0.00 34 1008.0
20260505223058 74 293 0.0 0.0 0.00 0.00 0.00 35 1008.2
20260505221600 74 343 0.0 0.0 0.00 0.00 0.00 32 1008.3
20260505220055 74 29 0.0 0.0 0.00 0.00 0.00 33 1008.2
20260505214619 75 200 0.0 0.0 0.00 0.00 0.00 31 1008.2
20260505213055 76 33 0.9 0.0 0.00 0.00 0.00 31 1008.3
20260505211553 74 65 0.0 0.0 0.00 0.00 0.00 31 1008.3
20260505210051 75 239 0.9 0.0 0.00 0.00 0.00 31 1008.2
20260505204550 74 26 0.0 0.0 0.00 0.00 0.00 32 1008.4
20260505203049 75 341 0.0 0.0 0.00 0.00 0.00 30 1008.5
20260505201554 75 95 0.0 0.0 0.00 0.00 0.00 30 1008.5
20260505200047 74 324 0.0 0.0 0.00 0.00 0.00 31 1008.6
20260505194548 75 53 0.0 0.0 0.00 0.00 0.00 32 1008.7
20260505193046 74 69 0.0 0.0 0.00 0.00 0.00 34 1008.7
20260505191555 74 39 0.0 0.0 0.00 0.00 0.00 35 1008.8
20260505190040 73 18 0.0 0.0 0.00 0.00 0.00 37 1008.9
20260505184540 72 5 0.0 0.0 0.00 0.00 0.00 38 1009.0
20260505183045 70 5 0.0 0.0 0.00 0.00 0.00 40 1009.2
20260505181533 68 331 0.0 0.0 0.00 0.00 0.00 41 1009.1
20260505180025 67 28 0.0 0.0 0.00 0.00 0.00 42 1009.2
20260505174523 66 275 0.0 0.0 0.00 0.00 0.00 42 1009.2
20260505173027 64 311 0.0 0.0 0.00 0.00 0.00 47 1009.3
20260505171519 63 307 0.0 0.0 0.00 0.00 0.00 47 1009.2
20260505170017 61 298 0.0 0.0 0.00 0.00 0.00 54 1009.1
20260505164506 58 298 0.0 0.0 0.00 0.00 0.00 62 1009.2
20260505163009 55 298 0.0 0.0 0.00 0.00 0.00 68 1009.3
20260505161621 53 298 0.0 0.0 0.00 0.00 0.00 75 1009.4
20260505153049 45 298 0.0 0.0 0.00 0.00 0.00 94 1009.9
20260505151545 43 298 0.0 0.0 0.00 0.00 0.00 95 1009.9
20260505124534 32 298 0.0 0.0 0.00 0.00 0.00 90 1009.1
20260505123031 32 298 0.0 0.0 0.00 0.00 0.00 90 1009.1
20260505121533 33 298 0.0 0.0 0.00 0.00 0.00 90 1009.1
20260505120053 33 298 0.0 0.0 0.00 0.00 0.00 90 1008.8
20260505114524 33 298 0.0 0.0 0.00 0.00 0.00 90 1008.6